#timestamp,LO_Frequency,Hit,StdDev 
1652911215.9,286047001.3,N
1652911235.7,286047002.3,N
1652911255.5,286047002.2,N
1652911275.4,286047000.7,N
1652911295.2,286046996.5,Y
1652911315.0,286046993.3,P
1652911315.9,286046995.0,N
1652911335.8,286046998.0,N
1652911355.6,286046997.0,N
1652911375.5,286046995.4,N
1652911395.3,286046999.5,N
1652911415.1,286046999.2,N
1652911435.9,286046998.9,N
1652911455.7,286046999.7,N
1652911475.5,286047005.9,N
1652911495.4,286047003.6,N
1652911515.2,286047001.6,N
1652911535.1,286047001.3,N
1652911536.0,286047002.1,N
1652911555.8,286047000.6,N
1652911575.6,286047000.5,N
1652911595.5,286047000.2,N
1652911615.3,286047002.8,N
1652911635.1,286047001.6,N
1652911655.9,286047001.8,N
1652911675.7,286047006.1,N
1652911695.6,286047009.0,N
1652911715.4,286047007.3,N
1652911735.2,286047010.0,N
1652911755.1,286047009.3,N
1652911756.0,286047012.3,N
1652911775.8,286047011.9,N
1652911795.6,286047007.3,N
1652911815.5,286047006.9,N
1652911835.3,286047007.2,N
1652911855.2,286047005.8,N
1652911875.9,286047008.2,N
1652911895.7,286047007.0,N
1652911915.6,286047002.9,N
1652911935.4,286047005.8,N
1652911955.2,286047003.7,N
1652911975.1,286047003.7,N
1652911976.0,286047003.6,N
1652911995.8,286047005.1,N
1652912015.7,286047005.8,N
1652912035.5,286047004.8,N
1652912055.3,286047003.8,N
1652912075.2,286047005.1,N
1652912095.0,286047005.0,N
1652912095.9,286047003.9,N
1652912115.7,286047001.8,N
1652912135.6,286047003.1,N
1652912155.4,286047003.1,N
1652912175.3,286047004.6,N
1652912195.1,286047005.1,N
1652912196.0,286047005.2,N
1652912215.8,286047005.4,N
1652912235.7,286047005.5,N
1652912255.5,286047008.6,Y
1652912275.3,286047000.4,P
1652912295.2,286047002.6,N
1652912315.0,286047002.6,N
1652912315.9,286047002.5,N
1652912335.8,286047002.6,N
1652912355.6,286047002.6,N
1652912375.4,286047000.2,N
1652912395.3,286047003.6,N
1652912415.1,286047002.1,N
1652912435.9,286047000.6,N
1652912455.7,286046996.5,N
1652912475.5,286046999.6,N
1652912495.4,286047000.6,N
1652912515.2,286047003.2,N
1652912535.0,286047006.0,N
1652912535.9,286047004.4,N
1652912555.8,286047000.0,N
1652912575.6,286047002.1,N
1652912595.4,286047005.5,N
1652912615.3,286047005.6,N
1652912635.1,286047005.2,N
1652912655.9,286047006.0,N
1652912675.7,286047005.7,N
1652912695.5,286047006.4,N
1652912715.4,286047005.0,N
1652912735.2,286047006.7,N
1652912755.0,286047007.2,N
1652912756.0,286047007.2,N
1652912775.8,286047010.2,Y
1652912795.6,286047006.1,P
1652912815.5,286047009.0,P
1652912835.3,286047008.5,P
1652912855.1,286047008.9,Y
1652912875.9,286046999.1,P
1652912895.7,286046998.9,N
1652912915.6,286046998.3,N
1652912935.4,286047000.3,N
1652912955.2,286046998.6,N
1652912975.1,286046998.5,N
1652912976.0,286046999.5,N
1652912995.8,286047000.0,N
1652913015.6,286046998.6,N
1652913035.5,286047002.4,N
1652913055.3,286046999.3,N
1652913075.2,286046999.2,N
1652913095.9,286046995.1,N
1652913115.7,286046997.9,N
1652913135.6,286046999.6,N
1652913155.4,286046997.2,N
1652913175.3,286046998.1,N
1652913195.1,286046998.8,N
1652913196.0,286046995.2,N
1652913215.8,286046996.2,N
1652913235.7,286046993.8,N
1652913255.5,286046992.4,N
1652913275.3,286046991.7,N
1652913295.2,286046992.2,N
1652913315.0,286046994.1,N
1652913315.9,286046992.2,N
1652913335.8,286046988.5,Y
1652913355.6,286046994.1,P
1652913375.4,286046992.6,P
1652913395.3,286046992.8,P
1652913415.1,286046992.6,Y
1652913435.9,286046997.5,P
1652913455.7,286046995.0,P
1652913475.5,286046999.9,N
1652913495.4,286047000.1,N
1652913515.2,286046999.8,N
1652913535.0,286047001.8,N
1652913535.9,286047003.5,N
1652913555.8,286047003.5,N
1652913575.6,286047000.9,N
1652913595.5,286046999.8,N
1652913615.3,286047003.4,N
1652913635.1,286047005.8,N
1652913655.9,286047004.0,N
1652913675.7,286047001.7,N
1652913695.5,286047001.5,N
1652913715.4,286047003.3,N
1652913735.2,286047005.4,N
1652913755.1,286047005.8,N
1652913756.0,286047006.0,N
1652913775.8,286047000.0,N
1652913795.6,286047002.4,N
1652913815.5,286047000.0,N
1652913835.3,286047000.1,N
1652913855.1,286047000.3,N
1652913875.9,286047005.6,N
1652913895.7,286047001.4,N
1652913915.6,286047000.4,N
1652913935.4,286047000.2,N
1652913955.2,286046999.6,N
1652913975.1,286046997.1,N
1652913976.0,286046998.3,N
1652913995.8,286046997.8,N
1652914015.6,286046997.5,N
1652914035.5,286046996.0,N
1652914055.3,286046993.3,N
1652914075.2,286046997.6,N
1652914095.9,286046997.3,N
1652914115.7,286046997.3,N
1652914135.6,286046999.6,N
1652914155.4,286046997.3,N
1652914175.2,286046996.5,N
1652914195.1,286046997.2,N
1652914196.0,286046996.7,N
1652914215.8,286046993.7,N
1652914235.7,286046993.9,N
1652914255.5,286046995.9,N
1652914275.3,286046997.5,N
1652914295.2,286046997.4,N
1652914315.0,286046996.1,N
1652914315.9,286046995.7,N
1652914335.8,286046997.9,N
1652914355.6,286046995.1,N
1652914375.4,286046996.1,N
1652914395.3,286046995.6,N
1652914415.1,286046995.0,N
1652914435.9,286046998.3,N
1652914455.7,286047002.8,N
1652914475.5,286046998.5,N
1652914495.4,286046997.7,N
1652914515.2,286046997.7,N
1652914535.0,286046996.8,N
1652914535.9,286046998.9,N
1652914555.8,286046996.5,N
1652914575.6,286046997.0,N
1652914595.5,286046997.0,N
1652914615.3,286047002.0,N
1652914635.1,286046998.5,N
1652914655.9,286046997.1,N
1652914675.7,286047000.5,N
1652914695.6,286046999.5,N
1652914715.4,286046999.1,N
1652914735.2,286047000.6,N
1652914755.1,286046999.8,N
1652914756.0,286047000.2,N
1652914775.8,286047001.4,N
1652914795.7,286047000.0,N
